Location: Bonningues
(50.7927°N, 2.0150°E)
Time: 06:31:59
(UTC+00:00)

USA 234 - Pass Details

Date: 08 August 2020
Orbit: 1101 x 1107 km, 123.0° (Epoch: 22 September)

Event Time Altitude Azimuth Distance (km) Brightness Sun altitude
Exits shadow 22:06:04 26° 180° (S) 2,024 4.2 -19.1°
Maximum altitude 22:08:59 38° 227° (SW) 1,624 4.0 -19.3°
Drops below altitude 10° 22:15:00 10° 294° (WNW) 2,966 6.2 -19.7°
Sets 22:17:43 0° 302° (WNW) 3,928 7.1 -19.9°
